Location: Bellerive
(46.9237°N, 7.0223°E)
Time: 03:57:02
(UTC+00:00)

NOSS 3-4 (A) - Pass Details

Date: 09 April 2020
Orbit: 892 x 1320 km, 63.4° (Epoch: 01 June)

Event Time Altitude Azimuth Distance (km) Brightness Sun altitude
Rises 19:25:21 0° 318° (NW) 3,838 8.0 -12.5°
Reaches altitude 10° 19:27:55 10° 315° (NW) 2,939 7.3 -12.9°
Maximum altitude 19:34:49 60° 238° (WSW) 1,323 4.3 -13.9°
Drops below altitude 10° 19:42:24 10° 161° (SSE) 3,220 5.8 -15.1°
Enters shadow 19:42:34 - 160° (SSE) 3,279 5.8 -15.1°
